CW5229 Weather Reports


Display with metric or nautical units.
time (UTC)temp
F
wind
direction
speed
MPH
gust
MPH
rain 1hr
in
rain 24hr
in
rain mn
in
humidity
%
barometer
mb
20260902110025 0 266 0.0 1.0 0.00 0.01 0.00 1012.6
20260902104523 75 248 0.0 1.0 0.00 0.02 0.00 85 1012.6
20260902103018 74 207 0.0 1.0 0.00 0.02 0.00 86 1012.7
20260902101521 75 254 0.0 0.0 0.00 0.02 0.00 86 1012.7
20260902100019 75 257 0.0 1.0 0.00 0.02 0.00 86 1012.4
20260902094515 75 255 0.0 1.0 0.00 0.05 0.00 86 1012.4
20260902093016 75 255 0.0 1.0 0.00 0.05 0.00 86 1012.4
20260902091511 76 271 0.0 0.0 0.00 0.05 0.00 85 1012.4
20260902090010 76 271 0.0 0.0 0.00 0.05 0.00 85 1012.4
20260902084508 76 271 0.0 1.0 0.00 0.08 0.00 84 1012.3
20260902083007 77 218 0.0 1.0 0.00 0.08 0.00 84 1012.3
20260902081508 77 274 0.0 2.0 0.00 0.08 0.00 84 1012.1
20260902080005 77 263 0.0 1.0 0.00 0.08 0.00 85 1012.1
20260902074504 76 255 0.0 3.0 0.00 0.08 0.00 85 1012.1
20260902073037 76 208 0.0 1.0 0.00 0.08 0.00 85 1012.0
20260902071532 77 207 0.0 1.0 0.00 0.08 0.00 85 1012.1
20260902070030 77 265 0.0 2.0 0.00 0.08 0.00 85 1012.1
20260902064534 77 177 0.0 2.0 0.00 0.08 0.00 85 1012.1
20260902063030 77 274 0.0 1.0 0.00 0.08 0.00 85 1012.1
20260902061542 77 209 0.0 0.0 0.00 0.08 0.00 86 1012.0
20260902060026 77 238 0.0 0.0 0.00 0.08 0.00 85 1012.1
20260902054626 77 245 0.0 1.0 0.00 0.08 0.00 85 1012.1
20260902053022 78 229 0.0 2.0 0.00 0.08 0.00 84 1012.2
20260902051520 78 271 0.0 2.0 0.00 0.08 0.00 83 1012.2
20260902050017 79 151 0.0 1.0 0.00 0.08 0.00 82 1012.2
20260902044524 79 207 0.0 1.0 0.00 0.08 0.00 82 1012.2
20260902043017 79 257 0.0 0.0 0.00 0.08 0.00 81 1012.3
20260902041514 79 160 0.0 0.0 0.00 0.08 0.00 81 1012.3
20260902040012 79 160 0.0 0.0 0.00 0.08 0.00 82 1012.4
20260902034512 79 160 0.0 0.0 0.00 0.08 0.00 82 1012.2
20260902033010 79 157 0.0 0.0 0.00 0.08 0.00 83 1012.2
20260902031508 80 157 0.0 0.0 0.00 0.08 0.00 83 1012.3
20260902030004 80 217 0.0 0.0 0.00 0.08 0.00 82 1012.3
20260902024502 81 264 0.0 0.0 0.00 0.08 0.00 82 1012.2
20260902023113 81 276 0.0 0.0 0.00 0.08 0.00 82 1012.2
20260902021602 82 270 0.0 1.0 0.00 0.08 0.00 82 1012.1
20260902020029 82 288 0.0 1.0 0.00 0.08 0.00 82 1011.9
20260902014530 82 268 0.0 0.0 0.00 0.08 0.00 81 1011.9
20260902013022 83 245 0.0 0.0 0.00 0.08 0.00 80 1011.7
20260902011520 84 232 0.0 0.0 0.00 0.08 0.00 79 1011.6
20260902010024 85 232 0.0 0.0 0.00 0.08 0.00 78 1011.3
20260902004514 86 224 0.0 0.0 0.00 0.10 0.00 76 1011.3
20260902003006 87 222 0.0 0.0 0.00 0.10 0.00 74 1011.2
20260902001501 88 223 0.0 1.0 0.00 0.10 0.00 70 1011.3
20260901234602 91 210 0.0 4.0 0.00 0.10 0.00 66 1011.3
20260901233054 92 259 0.0 3.0 0.00 0.10 0.00 66 1011.4
20260901231608 92 286 1.0 3.0 0.00 0.10 0.00 65 1011.4
20260901224551 92 240 0.0 2.0 0.00 0.10 0.00 67 1011.4
20260901223050 93 276 0.0 3.0 0.00 0.10 0.00 65 1011.4
20260901221552 93 277 1.0 4.0 0.00 0.10 0.00 64 1011.4
20260901220027 94 263 1.0 5.0 0.00 0.10 0.00 63 1011.3
20260901214515 94 236 0.0 4.0 0.00 0.10 0.00 66 1011.3
20260901213020 94 284 1.0 5.0 0.00 0.10 0.00 64 1011.3
20260901211514 96 169 1.0 5.0 0.00 0.10 0.00 61 1011.5
20260901210011 96 284 2.0 5.0 0.00 0.10 0.00 60 1011.5
20260901204514 96 270 2.0 8.0 0.00 0.10 0.00 59 1011.6
20260901203005 97 176 1.0 4.0 0.00 0.10 0.00 60 1011.8
20260901201503 97 259 0.0 4.0 0.00 0.10 0.00 60 1011.7
20260901200004 97 279 1.0 5.0 0.00 0.10 0.00 60 1011.8
20260901194529 96 258 0.0 6.0 0.00 0.10 0.00 61 1011.9
20260901193027 96 307 2.0 6.0 0.00 0.10 0.00 61 1011.9
20260901191530 96 259 2.0 8.0 0.00 0.10 0.00 62 1012.1
20260901190024 95 297 2.0 8.0 0.00 0.10 0.00 61 1012.2
20260901184519 96 168 0.0 5.0 0.00 0.10 0.00 66 1012.2
20260901183023 95 277 0.0 4.0 0.00 0.10 0.00 66 1012.3
20260901181518 95 145 2.0 5.0 0.00 0.10 0.00 66 1012.3
20260901180006 94 262 0.0 4.0 0.00 0.10 0.00 67 1012.4
20260901174503 93 210 1.0 4.0 0.00 0.10 0.00 68 1012.5
20260901173105 93 207 2.0 6.0 0.00 0.10 0.00 67 1012.6
20260901171527 92 167 1.0 5.0 0.00 0.10 0.00 70 1012.8
20260901170020 91 209 1.0 4.0 0.00 0.10 0.00 70 1012.8
20260901164515 91 240 1.0 4.0 0.00 0.10 0.10 70 1012.8
20260901163010 90 248 1.0 4.0 0.00 0.10 0.10 70 1013.0
20260901161522 89 255 1.0 4.0 0.00 0.10 0.10 71 1013.0
20260901160009 87 243 0.0 4.0 0.00 0.10 0.10 74 1013.1
20260901154511 86 245 0.0 4.0 0.00 0.10 0.10 75 1013.0
20260901153011 84 227 0.0 3.0 0.00 0.10 0.10 79 1013.0
20260901151518 83 207 0.0 3.0 0.00 0.10 0.10 79 1013.1
20260901150006 83 303 0.0 2.0 0.00 0.10 0.10 78 1013.0
20260901144503 82 274 0.0 3.0 0.01 0.11 0.10 80 1013.0
20260901143003 81 268 1.0 2.0 0.01 0.11 0.10 81 1012.9
20260901141504 79 243 0.0 3.0 0.01 0.11 0.10 85 1013.0
20260901140003 78 214 0.0 3.0 0.01 0.11 0.10 86 1013.1
20260901134559 76 251 0.0 2.0 0.00 0.10 0.09 88 1013.1
20260901133057 75 258 0.0 2.0 0.00 0.10 0.09 89 1013.2
20260901131558 75 264 0.0 1.0 0.00 0.10 0.09 90 1013.4
20260901130057 74 251 0.0 1.0 0.00 0.10 0.09 91 1013.5
20260901124556 73 184 0.0 1.0 0.00 0.10 0.09 91 1013.4
20260901123052 0 0.0 0.0 0.00 0.10 0.09 1013.1
20260901121545 0 0.0 0.0 0.00 0.10 0.09 1013.2
20260901120041 0 0.0 0.0 0.00 0.10 0.09 1012.9
20260901114535 0 0.0 0.0 0.00 0.10 0.09 1012.8
20260901113035 0 0.0 0.0 0.00 0.10 0.09 1012.5
20260901111526 0 0.0 0.0 0.01 0.10 0.09 1012.4